• In Netherlands
  • List of Countries
  • For 7 days
  • Water Temperature
  • Satellite Maps
  • Weather Map
  • Weather Widgets
  • user-avatar
    Login

    Hourly Weather Vratsa

    Today, 25 May, Friday

    Time Temperature Precipitation Wind Pressure Humidity
    00:00 +14°C° 0 mm 1 mps 708 mmHg 82%
    01:00 +13°C° 0 mm 1 mps 708 mmHg 82%
    02:00 +13°C° 0 mm 1 mps 708 mmHg 82%
    03:00 +13°C° 0 mm 1 mps 708 mmHg 82%
    04:00 +13°C° 0 mm 1 mps 708 mmHg 83%
    05:00 +13°C° 0 mm 1 mps 708 mmHg 83%
    06:00 +14°C° 0 mm 1 mps 708 mmHg 79%
    07:00 +16°C° 0 mm 1 mps 708 mmHg 74%
    08:00 +19°C° 0 mm 2 mps 709 mmHg 69%
    09:00 +20°C° 0.1 mm 2 mps 709 mmHg 64%
    10:00 +21°C° 0.1 mm 2 mps 709 mmHg 59%
    11:00 +23°C° 0.1 mm 2 mps 709 mmHg 54%
    12:00 +24°C° 0.1 mm 2 mps 709 mmHg 52%
    13:00 +25°C° 0.1 mm 2 mps 709 mmHg 50%
    14:00 +25°C° 0.1 mm 2 mps 709 mmHg 48%
    15:00 +25°C° 0.1 mm 3 mps 709 mmHg 51%
    16:00 +25°C° 0.1 mm 3 mps 709 mmHg 53%
    17:00 +24°C° 0.1 mm 3 mps 709 mmHg 56%
    18:00 +21°C° 0 mm 2 mps 709 mmHg 62%
    19:00 +19°C° 0 mm 2 mps 709 mmHg 68%
    20:00 +19°C° 0 mm 1 mps 709 mmHg 75%
    21:00 +18°C° 0 mm 1 mps 709 mmHg 76%
    22:00 +16°C° 0 mm 1 mps 709 mmHg 77%
    23:00 +15°C° 0 mm 1 mps 710 mmHg 78%

    Tomorrow, 26 May, Saturday

    Time Temperature Precipitation Wind Pressure Humidity
    00:00 +15°C° 0 mm 1 mps 710 mmHg 78%
    01:00 +15°C° 0 mm 1 mps 710 mmHg 78%
    02:00 +15°C° 0 mm 1 mps 710 mmHg 78%
    03:00 +14°C° 0 mm 1 mps 710 mmHg 79%
    04:00 +14°C° 0 mm 1 mps 710 mmHg 80%
    05:00 +14°C° 0 mm 1 mps 710 mmHg 81%
    06:00 +16°C° 0 mm 1 mps 711 mmHg 77%
    07:00 +19°C° 0 mm 1 mps 711 mmHg 72%
    08:00 +20°C° 0 mm 1 mps 712 mmHg 68%
    09:00 +21°C° 0.1 mm 2 mps 712 mmHg 64%
    10:00 +23°C° 0.1 mm 2 mps 712 mmHg 61%
    11:00 +24°C° 0.1 mm 3 mps 712 mmHg 58%
    12:00 +24°C° 0.3 mm 3 mps 712 mmHg 57%
    13:00 +25°C° 0.3 mm 3 mps 712 mmHg 56%
    14:00 +25°C° 0.3 mm 3 mps 712 mmHg 55%
    15:00 +25°C° 0 mm 3 mps 712 mmHg 55%
    16:00 +24°C° 0 mm 3 mps 711 mmHg 56%
    17:00 +24°C° 0 mm 3 mps 711 mmHg 56%
    18:00 +21°C° 0.1 mm 2 mps 711 mmHg 65%
    19:00 +19°C° 0.1 mm 2 mps 711 mmHg 73%
    20:00 +17°C° 0.1 mm 2 mps 711 mmHg 82%
    21:00 +18°C° 0.1 mm 1 mps 711 mmHg 83%
    22:00 +16°C° 0.1 mm 1 mps 711 mmHg 84%
    23:00 +15°C° 0.1 mm 1 mps 712 mmHg 86%

    Day after tomorrow, 27 May, Sunday

    Time Temperature Precipitation Wind Pressure Humidity
    00:00 +15°C° 0.1 mm 1 mps 712 mmHg 87%
    01:00 +15°C° 0.1 mm 1 mps 712 mmHg 89%
    02:00 +14°C° 0.1 mm 1 mps 712 mmHg 90%
    03:00 +14°C° 0 mm 1 mps 712 mmHg 92%
    04:00 +14°C° 0 mm 1 mps 712 mmHg 93%
    05:00 +13°C° 0 mm 1 mps 712 mmHg 95%
    06:00 +15°C° 0 mm 2 mps 712 mmHg 89%
    07:00 +16°C° 0 mm 2 mps 713 mmHg 84%
    08:00 +17°C° 0 mm 3 mps 713 mmHg 78%
    09:00 +18°C° 0 mm 3 mps 713 mmHg 72%
    10:00 +19°C° 0 mm 3 mps 713 mmHg 67%
    11:00 +20°C° 0 mm 3 mps 713 mmHg 61%
    12:00 +21°C° 0 mm 3 mps 713 mmHg 61%
    13:00 +21°C° 0 mm 4 mps 713 mmHg 60%
    14:00 +22°C° 0 mm 4 mps 713 mmHg 59%
    15:00 +21°C° 0 mm 4 mps 712 mmHg 61%
    16:00 +21°C° 0 mm 4 mps 712 mmHg 63%
    17:00 +21°C° 0 mm 4 mps 712 mmHg 65%
    18:00 +19°C° 0 mm 3 mps 712 mmHg 73%
    19:00 +17°C° 0 mm 2 mps 712 mmHg 81%
    20:00 +15°C° 0 mm 2 mps 712 mmHg 90%
    21:00 +15°C° 0 mm 2 mps 712 mmHg 91%
    22:00 +14°C° 0 mm 1 mps 712 mmHg 93%
    23:00 +13°C° 0 mm 1 mps 712 mmHg 94%

    28 May, Monday

    Time Temperature Precipitation Wind Pressure Humidity
    00:00 +13°C° 0 mm 1 mps 712 mmHg 94%
    01:00 +13°C° 0 mm 1 mps 712 mmHg 94%
    02:00 +12°C° 0 mm 1 mps 712 mmHg 94%
    03:00 +12°C° 0 mm 1 mps 712 mmHg 94%
    04:00 +12°C° 0 mm 1 mps 712 mmHg 94%
    05:00 +12°C° 0 mm 1 mps 712 mmHg 94%
    06:00 +13°C° 0 mm 1 mps 712 mmHg 88%
    07:00 +15°C° 0 mm 1 mps 713 mmHg 81%
    08:00 +17°C° 0 mm 2 mps 713 mmHg 75%
    09:00 +18°C° 0 mm 2 mps 713 mmHg 69%
    10:00 +19°C° 0 mm 3 mps 713 mmHg 63%
    11:00 +21°C° 0 mm 3 mps 713 mmHg 57%
    12:00 +21°C° 0 mm 4 mps 713 mmHg 56%
    13:00 +21°C° 0 mm 4 mps 713 mmHg 55%
    14:00 +22°C° 0 mm 4 mps 713 mmHg 54%
    15:00 +21°C° 0 mm 4 mps 712 mmHg 56%
    16:00 +21°C° 0 mm 4 mps 712 mmHg 57%
    17:00 +21°C° 0 mm 4 mps 712 mmHg 59%
    18:00 +19°C° 0 mm 3 mps 712 mmHg 66%
    19:00 +17°C° 0 mm 2 mps 712 mmHg 73%
    20:00 +15°C° 0 mm 2 mps 712 mmHg 80%
    21:00 +15°C° 0 mm 1 mps 712 mmHg 82%
    22:00 +14°C° 0 mm 1 mps 712 mmHg 83%
    23:00 +13°C° 0 mm 1 mps 712 mmHg 85%

    29 May, Tuesday

    Time Temperature Precipitation Wind Pressure Humidity
    00:00 +13°C° 0 mm 1 mps 712 mmHg 86%
    01:00 +12°C° 0 mm 1 mps 712 mmHg 87%
    02:00 +12°C° 0 mm 1 mps 712 mmHg 87%
    03:00 +11°C° 0 mm 1 mps 712 mmHg 88%
    04:00 +11°C° 0 mm 1 mps 711 mmHg 88%
    05:00 +11°C° 0 mm 1 mps 711 mmHg 89%
    06:00 +13°C° 0 mm 1 mps 712 mmHg 81%
    07:00 +15°C° 0 mm 2 mps 712 mmHg 74%
    08:00 +17°C° 0 mm 2 mps 712 mmHg 67%
    09:00 +18°C° 0 mm 3 mps 712 mmHg 62%
    10:00 +19°C° 0 mm 3 mps 712 mmHg 57%
    11:00 +21°C° 0 mm 4 mps 712 mmHg 53%
    12:00 +21°C° 0 mm 4 mps 712 mmHg 52%
    13:00 +22°C° 0 mm 4 mps 712 mmHg 51%
    14:00 +22°C° 0 mm 4 mps 711 mmHg 50%
    15:00 +22°C° 0 mm 4 mps 711 mmHg 53%
    16:00 +22°C° 0 mm 4 mps 711 mmHg 55%
    17:00 +21°C° 0 mm 4 mps 711 mmHg 57%
    18:00 +20°C° 0 mm 3 mps 710 mmHg 65%
    19:00 +18°C° 0 mm 2 mps 710 mmHg 74%
    20:00 +16°C° 0 mm 2 mps 710 mmHg 82%
    21:00 +15°C° 0 mm 2 mps 710 mmHg 84%
    22:00 +14°C° 0 mm 1 mps 710 mmHg 86%
    23:00 +13°C° 0 mm 1 mps 710 mmHg 88%

    30 May, Wednesday

    Time Temperature Precipitation Wind Pressure Humidity
    00:00 +13°C° 0 mm 1 mps 710 mmHg 88%
    01:00 +13°C° 0 mm 1 mps 710 mmHg 88%
    02:00 +13°C° 0 mm 1 mps 709 mmHg 89%
    03:00 +12°C° 0 mm 1 mps 709 mmHg 88%
    04:00 +12°C° 0 mm 1 mps 709 mmHg 88%
    05:00 +12°C° 0 mm 1 mps 709 mmHg 87%
    06:00 +14°C° 0 mm 1 mps 709 mmHg 82%
    07:00 +15°C° 0 mm 1 mps 710 mmHg 78%
    08:00 +16°C° 0 mm 1 mps 710 mmHg 73%
    09:00 +17°C° 0 mm 2 mps 710 mmHg 66%
    10:00 +18°C° 0 mm 2 mps 710 mmHg 59%
    11:00 +20°C° 0 mm 2 mps 710 mmHg 52%
    12:00 +20°C° 0 mm 3 mps 709 mmHg 50%
    13:00 +21°C° 0 mm 3 mps 709 mmHg 48%
    14:00 +21°C° 0 mm 3 mps 709 mmHg 47%
    15:00 +21°C° 0 mm 3 mps 709 mmHg 48%
    16:00 +21°C° 0 mm 3 mps 708 mmHg 49%
    17:00 +21°C° 0 mm 2 mps 708 mmHg 51%
    18:00 +19°C° 0 mm 2 mps 708 mmHg 58%
    19:00 +17°C° 0 mm 2 mps 708 mmHg 66%
    20:00 +15°C° 0 mm 1 mps 707 mmHg 74%
    21:00 +15°C° 0 mm 1 mps 707 mmHg 74%
    22:00 +14°C° 0 mm 1 mps 707 mmHg 74%
    23:00 +13°C° 0 mm 1 mps 707 mmHg 74%
    Show more